Content
SEND FEEDBACK

Daily
Averages
Monthly
Summary
Turkmenistan

ASHGABAT, TURKMENISTAN


Home > Asia > Turkmenistan
Elevation: 775 feet     Latitude: 37 58N     Longitude: 058 20E

WEATHER
 
SELECT A DAY
Number of Records: 180,407;   Date Range: 3/15/97 - 9/30/14
 
SHARE

PRINT THIS DATA

[ ← Previous Day ]
WEATHER ALMANAC - JULY 2, 2013
[ Next Day → ]
[ °C ]   °F
Weather ElementAverageHighLow
Temperature95.3 °F105.8 °F (4:30 pm)76 °F (5:00 am)
Dewpoint40.7 °F54 °F (5:00 am)33.8 °F (6:00 pm)
Humidity15.4 %35 % (5:00 am)7 % (5:00 pm)
Barometer29.50 in29.56 in (9:00 am)29.44 in (5:00 pm)
Wind Speed7.6 mph15.7 mph (11:00 am)
Weather ElementAverage
Visibility6 mi
Wind DirectionW (264.5 °)

Weather ElementTotal
Precipitation---
Cooling Degree Days25.9 (Base 65)
Growing Degree Days40.9 (Base 50)
Averaged from 33 records on July 2, 2013
WEATHER CONDITIONS BREAKOUT
WIND DIRECTION BREAKOUT
WEATHER BY HOUR - JULY 2, 2013
[ °C ]   °F
Local TimeTemperatureDewpointHumidityBarometerVisibilityWind DirectionWind SpeedGust SpeedPrecipitationEventsConditions
3:00 AM80.6 °F42.8 °F26 %29.53 in6.2 miWSW (250°)6.7 mphClear
4:00 AM78.8 °F44.6 °F30 %29.50 in3.7 miWSW (250°)6.7 mphClear
5:00 AM76.0 °F54.0 °F35 %29.52 in6.0 miWSW (250°)6.7 mph
5:00 AM78.8 °F46.4 °F32 %29.53 in3.7 miWSW (250°)6.7 mphClear
6:00 AM82.4 °F41.0 °F23 %29.53 in6.2 miWest (270°)8.9 mphClear
7:00 AM80.6 °F46.4 °F30 %29.53 in6.2 miSouth (190°)6.7 mphClear
8:00 AM86.0 °F50.0 °F19 %29.53 in6.0 miWNW (290°)8.9 mph
8:00 AM87.8 °F41.0 °F19 %29.53 in6.2 miWNW (290°)11.2 mphClear
9:00 AM89.6 °F44.6 °F21 %29.56 in6.2 miNW (310°)13.4 mphClear
10:00 AM93.2 °F39.2 °F15 %29.56 in6.2 miNW (310°)11.2 mphClear
11:00 AM96.8 °F41.0 °F15 %29.53 in6.2 miNW (310°)15.7 mphClear
12:00 PM100.4 °F39.2 °F12 %29.53 in6.2 miNW (310°)11.2 mphClear
1:00 PM100.4 °F37.4 °F11 %29.50 in6.2 miNNW (330°)8.9 mphClear
2:00 PM101.0 °F46.0 °F8 %29.48 in6.0 miNW (320°)11.2 mph
2:00 PM102.2 °F35.6 °F10 %29.50 in6.2 miNW (310°)8.9 mphClear
2:30 PM104.0 °F35.6 °F9 %29.50 in6.2 miNNW (330°)8.9 mphClear
3:00 PM104.0 °F35.6 °F9 %29.47 in6.2 miNNE (30°)6.7 mphClear
3:30 PM104.0 °F35.6 °F9 %29.47 in6.2 miNorth (360°)6.7 mphClear
4:00 PM104.0 °F35.6 °F9 %29.47 in6.2 miNNW (330°)8.9 mphClear
4:30 PM105.8 °F35.6 °F9 %29.47 in6.2 miWNW (300°)6.7 mphClear
5:00 PM104.0 °F45.0 °F7 %29.44 in6.0 miENE (60°)4.5 mphScattered Clouds
5:00 PM105.8 °F35.6 °F9 %29.47 in6.2 miNW (320°)4.5 mphPartly Cloudy
5:30 PM105.8 °F35.6 °F9 %29.47 in6.2 miWest (270°)8.9 mphPartly Cloudy
6:00 PM105.8 °F33.8 °F8 %29.47 in6.2 miWNW (300°)6.7 mphClear
6:30 PM105.8 °F33.8 °F8 %29.47 in6.2 miWNW (290°)6.7 mphClear
7:00 PM104.0 °F35.6 °F9 %29.47 in6.2 miWNW (290°)8.9 mphClear
7:30 PM102.2 °F33.8 °F9 %29.47 in6.2 miWNW (290°)8.9 mphClear
8:00 PM101.0 °F50.0 °F10 %29.45 in6.0 miWNW (300°)4.5 mph
8:00 PM100.4 °F35.6 °F11 %29.47 in6.2 miWNW (300°)4.5 mphClear
9:00 PM93.2 °F37.4 °F14 %29.50 in6.2 miWest (280°)4.5 mphClear
10:00 PM89.6 °F44.6 °F21 %29.50 in6.2 miVariable2.2 mphClear
11:00 PM86.0 °F52.0 °F21 %29.50 in6.0 miSW (220°)2.2 mph
11:00 PM86.0 °F42.8 °F22 %29.53 in6.2 miSW (220°)2.2 mphClear
Hourly data recorded from UTAA, located miles away from Ashgabat, Turkmenistan







STORIES FROM OUR PARTNERS